Location: Newark
(21.1200°N, 73.4000°E)
Time: 20:50:47
(UTC+00:00)

Explorer 11/Cluster Stage 4 - Pass Details

Date: 24 January 2020
Orbit: 467 x 1259 km, 28.8° (Epoch: 19 February)

Event Time Altitude Azimuth Distance (km) Brightness Sun altitude
Rises 08:33:48 0° 250° (WSW) 4,162 10.7 45.6°
Reaches altitude 10° 08:36:42 10° 250° (WSW) 3,222 10.4 45.3°
Maximum altitude 08:45:00 85° 338° (NNW) 1,239 8.3 44.4°
Drops below altitude 10° 08:52:46 10° 68° (ENE) 3,016 9.3 43.4°
Sets 08:55:24 0° 69° (ENE) 3,886 9.8 43.1°
